sat.trackr.live / text

‹ back to catalog

STRIX-8

NORAD 69701 · 2026-146A

PAYLOAD ACTIVE UNKNOWN

§ Identity

Operator
Country
JPN
Launch date
2026-06-26
Launch site
RLLB
Launch vehicle
Mass (kg)
RCS (m²)

External: N2YO · Heavens-Above · Gunter

§ Orbital elements

Epoch: 2026-09-20T03:07:19.579008Z

Period
95.69 min
Inclination
41.9910°
Eccentricity
0.0005774
Mean motion
15.04858323 rev/d
Perigee alt
547.9 km
Apogee alt
555.9 km
Semi-major
6,930.1 km
B*
2.0233e-4
RAAN
2.1736°
Arg perigee
112.8404°
Mean anomaly
247.3033°
Rev number
1,286

§ Raw data

STRIX-81 69701U 26146A   26263.13008772  .00002719  00000+0  20233-3 0  99902 69701  41.9910   2.1736 0005774 112.8404 247.3033 15.04858323 12869

JSON: /api/v1/satellites/69701 · /tle

For live sub-satellite position, see the globe view (requires WebGL).

§ Visibility from observer

Set your observer location to see the next 7 days of passes ≥ 10°. The values pass through the URL so the page stays shareable.

No JS? Fill the form by hand. The geolocation button needs JavaScript.